GW3114 Weather Reports


Display with metric or nautical units.
time (UTC)temp
F
wind
direction
speed
MPH
gust
MPH
rain 1hr
in
rain 24hr
in
rain mn
in
humidity
%
barometer
mb
20260507092724 53 190 0.0 0.0 0.00 0.07 0.07 89 1011.9
20260507091722 53 243 0.0 0.0 0.00 0.07 0.07 90 1011.6
20260507090719 53 237 0.0 1.0 0.00 0.07 0.07 91 1011.6
20260507085719 54 223 0.0 0.0 0.00 0.07 0.07 90 1011.5
20260507084719 54 8 0.0 1.0 0.00 0.07 0.07 90 1011.6
20260507083718 54 246 1.0 1.0 0.00 0.07 0.07 91 1011.7
20260507082716 54 234 0.0 0.0 0.00 0.07 0.07 91 1011.5
20260507081714 54 233 0.0 0.0 0.00 0.07 0.07 91 1011.7
20260507080713 54 240 0.0 1.0 0.00 0.07 0.07 91 1011.7
20260507075711 54 234 1.0 2.0 0.00 0.07 0.07 92 1011.5
20260507074709 54 233 0.0 1.0 0.00 0.07 0.07 93 1011.0
20260507073704 54 231 0.0 0.0 0.00 0.07 0.07 93 1010.9
20260507072704 54 232 0.0 0.0 0.00 0.07 0.07 93 1011.1
20260507071659 53 228 0.0 0.0 0.00 0.07 0.07 92 1010.9
20260507070659 54 277 2.0 3.0 0.00 0.07 0.07 93 1011.0
20260507065657 54 191 0.0 1.0 0.00 0.07 0.07 93 1011.1
20260507064657 54 218 1.0 1.0 0.00 0.07 0.07 93 1010.8
20260507063653 54 213 1.0 1.0 0.00 0.07 0.07 94 1011.1
20260507062652 54 227 0.0 0.0 0.00 0.07 0.07 96 1011.3
20260507061648 54 221 0.0 0.0 0.00 0.07 0.07 96 1011.5
20260507060643 54 238 0.0 0.0 0.00 0.07 0.07 97 1011.1
20260507055641 55 226 0.0 0.0 0.00 0.07 0.07 96 1011.0
20260507054639 55 250 0.0 0.0 0.00 0.07 0.07 96 1011.3
20260507053634 55 222 1.0 1.0 0.05 0.07 0.07 96 1011.3
20260507052630 55 29 0.0 1.0 0.00 0.06 0.06 95 1011.2
20260507051630 55 226 1.0 1.0 0.07 0.06 0.06 94 1011.2
20260507050629 55 266 2.0 3.0 0.00 0.05 0.05 95 1011.4
20260507045629 55 214 1.0 1.0 0.00 0.05 0.05 95 1010.9
20260507044628 55 154 1.0 1.0 0.00 0.05 0.05 95 1010.8
20260507043627 56 293 1.0 1.0 0.00 0.05 0.05 96 1011.4
20260507042626 56 294 1.0 2.0 0.00 0.05 0.05 95 1010.9
20260507041624 57 209 0.0 0.0 0.00 0.05 0.05 94 1011.5
20260507040624 58 121 0.0 0.0 0.83 0.05 0.05 92 1011.2
20260507035622 59 298 3.0 4.0 0.00 0.25 0.25 86 1011.0
20260507034621 59 226 2.0 2.0 0.00 0.25 0.25 88 1011.0
20260507033617 59 240 1.0 1.0 0.00 0.25 0.25 89 1010.6
20260507032617 60 4 1.0 2.0 0.00 0.25 0.25 91 1010.4
20260507031615 60 235 1.0 1.0 0.00 0.25 0.25 91 1010.4
20260507030615 61 179 1.0 2.0 0.00 0.25 0.25 89 1010.8
20260507025609 62 270 3.0 6.0 0.00 0.25 0.25 87 1010.4
20260507024604 62 281 2.0 2.0 0.00 0.25 0.25 87 1009.9
20260507023602 62 35 2.0 3.0 0.00 0.25 0.25 87 1009.7
20260507022557 62 228 0.0 0.0 0.00 0.25 0.25 88 1010.3
20260507021555 63 218 0.0 0.0 0.00 0.25 0.25 88 1009.8
20260507020549 63 209 2.0 2.0 0.00 0.25 0.25 88 1009.8
20260507015549 63 285 3.0 6.0 0.00 0.25 0.25 89 1009.7
20260507014549 63 222 0.0 1.0 0.00 0.25 0.25 93 1009.8
20260507013547 63 227 0.0 0.0 0.00 0.25 0.25 92 1009.7
20260507012542 64 230 0.0 0.0 0.00 0.25 0.25 91 1009.6
20260507011541 64 239 1.0 2.0 0.00 0.25 0.25 91 1010.0
20260507010537 64 276 1.0 2.0 0.00 0.25 0.25 92 1010.0
20260507005532 64 246 2.0 2.0 0.00 0.25 0.25 95 1009.8
20260507004531 65 258 0.0 0.0 0.00 0.25 0.25 96 1009.7
20260507003530 65 234 0.0 0.0 0.00 0.25 0.25 97 1009.4
20260507002528 65 223 0.0 1.0 0.00 0.25 0.25 98 1009.7
20260507001526 65 227 1.0 1.0 0.07 0.25 0.25 98 1009.4
20260507000526 65 229 0.0 0.0 0.07 0.25 0.25 98 1009.2
20260506235525 65 218 0.0 0.0 0.00 0.24 0.24 98 1009.0
20260506234524 65 234 0.0 0.0 0.00 0.24 0.24 97 1009.0
20260506233524 66 218 0.0 0.0 0.07 0.24 0.24 94 1009.0
20260506232523 67 224 1.0 1.0 0.12 0.23 0.23 91 1008.9
20260506231522 69 227 2.0 3.0 0.00 0.21 0.21 86 1008.5
20260506230521 69 219 1.0 1.0 0.00 0.21 0.21 83 1008.2
20260506225516 69 221 0.0 0.0 0.00 0.21 0.21 84 1008.3
20260506224515 69 199 1.0 1.0 0.00 0.21 0.21 83 1008.4
20260506223512 69 198 1.0 2.0 0.00 0.21 0.21 82 1008.3
20260506222511 69 193 1.0 2.0 0.00 0.21 0.21 83 1007.9
20260506221510 69 205 2.0 2.0 0.00 0.21 0.21 82 1008.2
20260506220508 70 195 2.0 6.0 0.00 0.21 0.21 80 1008.1
20260506215507 70 179 4.0 4.0 0.00 0.21 0.21 81 1008.0
20260506214506 70 203 4.0 7.0 0.00 0.21 0.21 80 1007.8
20260506213501 71 201 1.0 1.0 0.00 0.21 0.21 83 1008.0
20260506212459 70 190 3.0 4.0 0.00 0.21 0.21 81 1008.0
20260506211456 71 215 0.0 1.0 0.00 0.21 0.21 81 1008.0
20260506210456 70 105 3.0 6.0 0.00 0.21 0.21 82 1007.8
20260506205455 70 168 6.0 7.0 0.00 0.21 0.21 81 1007.7
20260506204455 71 224 1.0 2.0 0.00 0.21 0.21 82 1007.5
20260506203455 71 237 2.0 3.0 0.00 0.21 0.21 81 1007.5
20260506202450 69 152 4.0 4.0 0.00 0.21 0.21 81 1007.4
20260506201449 70 146 4.0 8.0 0.00 0.21 0.21 82 1007.9
20260506200448 70 131 1.0 2.0 0.00 0.21 0.21 83 1007.6
20260506195448 69 294 3.0 3.0 0.00 0.21 0.21 84 1007.8
20260506194448 69 168 3.0 3.0 0.00 0.21 0.21 84 1008.0
20260506193448 68 176 2.0 3.0 0.00 0.21 0.21 85 1007.7
20260506192447 69 226 1.0 1.0 0.00 0.21 0.21 83 1007.9
20260506191446 69 85 4.0 6.0 0.00 0.21 0.21 84 1007.9
20260506190445 69 144 6.0 9.0 0.00 0.21 0.21 83 1008.1
20260506185445 68 79 3.0 4.0 0.00 0.21 0.21 85 1008.3
20260506184445 68 220 2.0 2.0 0.00 0.21 0.21 86 1008.1
20260506183443 67 96 3.0 4.0 0.00 0.21 0.21 86 1008.3
20260506182444 67 163 4.0 6.0 0.00 0.21 0.21 86 1008.4
20260506181439 67 150 4.0 7.0 0.00 0.21 0.21 85 1008.5
20260506180437 66 231 4.0 6.0 0.00 0.21 0.21 86 1008.6
20260506175437 66 214 1.0 1.0 0.00 0.21 0.21 87 1008.7
20260506174432 66 145 3.0 4.0 0.00 0.21 0.21 86 1008.8
20260506173431 66 236 3.0 4.0 0.00 0.21 0.21 87 1008.9
20260506172431 65 241 2.0 2.0 0.00 0.21 0.21 88 1009.1
20260506171431 65 178 2.0 3.0 0.00 0.21 0.21 88 1008.9
20260506170431 65 210 2.0 3.0 0.00 0.21 0.21 89 1008.8
20260506165428 64 181 4.0 6.0 0.00 0.21 0.21 89 1009.0
20260506164426 64 159 3.0 4.0 0.00 0.21 0.21 90 1008.8
20260506163425 64 238 2.0 3.0 0.00 0.21 0.21 90 1009.0
20260506162424 63 196 1.0 2.0 0.00 0.21 0.21 93 1009.2
20260506161419 63 208 4.0 6.0 0.00 0.21 0.21 95 1009.2
20260506160414 62 167 1.0 1.0 0.00 0.21 0.21 96 1009.0
20260506155408 62 154 1.0 2.0 0.00 0.21 0.21 97 1009.1
20260506153530 61 174 2.0 3.0 0.00 0.21 0.21 98 1009.3
20260506152530 61 140 3.0 4.0 0.00 0.21 0.21 98 1009.1
20260506151526 61 208 5.0 9.0 0.00 0.21 0.21 99 1009.3
20260506150525 61 179 3.0 4.0 0.00 0.21 0.21 99 1009.4
20260506145525 60 106 2.0 4.0 0.05 0.21 0.21 99 1009.7
20260506144524 60 110 3.0 4.0 0.00 0.20 0.20 99 1009.6
20260506143520 60 125 6.0 7.0 0.00 0.20 0.20 99 1009.3
20260506142515 60 149 2.0 3.0 0.07 0.20 0.20 99 1009.6
20260506141511 60 193 1.0 2.0 0.05 0.19 0.19 99 1009.8
20260506140506 60 192 0.0 1.0 0.00 0.18 0.18 99 1009.9
20260506135506 60 209 1.0 1.0 0.07 0.18 0.18 99 1009.8
20260506134503 60 176 0.0 1.0 0.05 0.17 0.17 99 1009.8
20260506133503 60 170 1.0 1.0 0.07 0.16 0.16 99 1009.7
20260506132502 60 179 2.0 3.0 0.12 0.15 0.15 99 1009.6
20260506131457 60 178 1.0 1.0 0.12 0.13 0.13 98 1010.1
20260506130456 60 148 2.0 3.0 0.24 0.11 0.11 98 1010.0
20260506125452 60 179 2.0 3.0 0.17 0.08 0.08 97 1010.3
20260506124447 60 176 2.0 2.0 0.00 0.05 0.05 96 1010.4
20260506123442 60 189 0.0 0.0 0.07 0.05 0.05 96 1009.9
20260506122442 60 190 0.0 1.0 0.00 0.04 0.04 96 1009.8
20260506121437 60 198 2.0 2.0 0.00 0.04 0.04 96 1009.5
20260506120432 60 133 2.0 2.0 0.12 0.04 0.04 95 1009.7
20260506115427 61 183 0.0 1.0 0.12 0.03 0.03 92 1010.1
20260506114422 62 203 1.0 2.0 0.07 0.01 0.01 88 1010.1
20260506113418 63 263 1.0 2.0 0.00 0.00 0.00 85 1010.2
20260506112418 63 187 4.0 6.0 0.00 0.00 0.00 83 1009.8
20260506111413 64 183 3.0 4.0 0.00 0.00 0.00 81 1009.7
20260506110414 64 180 2.0 2.0 0.00 0.00 0.00 79 1009.6
20260506105412 64 117 4.0 8.0 0.00 0.00 0.00 79 1009.4
20260506104407 64 202 2.0 2.0 0.00 0.00 0.00 80 1009.5
20260506103402 64 241 2.0 3.0 0.00 0.00 0.00 80 1009.0
20260506102357 64 174 2.0 2.0 0.00 0.00 0.00 79 1008.7
20260506101356 65 76 3.0 6.0 0.00 0.00 0.00 75 1009.2
20260506100352 65 180 2.0 3.0 0.00 0.00 0.00 75 1009.1
20260506095347 65 233 5.0 9.0 0.00 0.00 0.00 75 1009.0
20260506094343 66 145 5.0 8.0 0.00 0.00 0.00 74 1009.0